| time (UTC) | temp F | wind direction | speed MPH | gust MPH | rain 1hr in | rain 24hr in | rain mn in | humidity % | barometer mb |
| 20260903084503 | 66 | 235 | 5.0 | 15.0 | 0.00 | 0.00 | 0.00 | 88 | 1016.2 |
| 20260903083603 | 65 | 229 | 4.0 | 14.0 | 0.00 | 0.00 | 0.00 | 89 | 1016.1 |
| 20260903082703 | 64 | 236 | 5.0 | 10.0 | 0.00 | 0.00 | 0.00 | 90 | 1016.3 |
| 20260903081803 | 64 | 235 | 4.0 | 11.0 | 0.00 | 0.00 | 0.00 | 90 | 1016.4 |
| 20260903080903 | 64 | 223 | 3.0 | 8.0 | 0.00 | 0.00 | 0.00 | 90 | 1016.2 |
| 20260903080003 | 63 | 219 | 3.0 | 8.0 | 0.00 | 0.00 | 0.00 | 90 | 1016.0 |
| 20260903075403 | 63 | 219 | 3.0 | 9.0 | 0.00 | 0.00 | 0.00 | 90 | 1015.9 |
| 20260903074503 | 63 | 238 | 3.0 | 7.0 | 0.00 | 0.00 | 0.00 | 91 | 1016.0 |
| 20260903073603 | 63 | 236 | 4.0 | 10.0 | 0.00 | 0.00 | 0.00 | 91 | 1016.0 |
| 20260903072703 | 63 | 235 | 3.0 | 9.0 | 0.00 | 0.00 | 0.00 | 91 | 1016.1 |
| 20260903071803 | 62 | 236 | 3.0 | 10.0 | 0.00 | 0.00 | 0.00 | 91 | 1016.0 |
| 20260903070903 | 62 | 240 | 3.0 | 10.0 | 0.00 | 0.00 | 0.00 | 91 | 1015.8 |
| 20260903070003 | 62 | 238 | 5.0 | 9.0 | 0.00 | 0.00 | 0.00 | 91 | 1015.9 |
| 20260903065403 | 62 | 236 | 5.0 | 10.0 | 0.00 | 0.00 | 0.00 | 91 | 1015.9 |
| 20260903064503 | 62 | 229 | 4.0 | 11.0 | 0.00 | 0.00 | 0.00 | 91 | 1015.7 |
| 20260903063602 | 62 | 213 | 3.0 | 7.0 | 0.00 | 0.00 | 0.00 | 91 | 1015.6 |
| 20260903062702 | 62 | 212 | 3.0 | 10.0 | 0.00 | 0.00 | 0.00 | 91 | 1015.6 |
| 20260903061802 | 62 | 230 | 4.0 | 10.0 | 0.00 | 0.00 | 0.00 | 91 | 1015.5 |
| 20260903060903 | 61 | 233 | 3.0 | 8.0 | 0.00 | 0.00 | 0.00 | 91 | 1015.5 |
| 20260903060003 | 61 | 237 | 3.0 | 9.0 | 0.00 | 0.00 | 0.00 | 91 | 1015.3 |
| 20260903055403 | 61 | 237 | 4.0 | 9.0 | 0.00 | 0.00 | 0.00 | 91 | 1015.4 |
| 20260903054503 | 61 | 234 | 3.0 | 8.0 | 0.00 | 0.00 | 0.00 | 91 | 1015.5 |
| 20260903053603 | 61 | 235 | 4.0 | 8.0 | 0.00 | 0.00 | 0.00 | 91 | 1015.5 |
| 20260903052703 | 61 | 236 | 3.0 | 7.0 | 0.00 | 0.00 | 0.00 | 90 | 1015.4 |
| 20260903051803 | 60 | 236 | 3.0 | 6.0 | 0.00 | 0.00 | 0.00 | 90 | 1015.2 |
| 20260903050903 | 61 | 233 | 3.0 | 8.0 | 0.00 | 0.00 | 0.00 | 90 | 1015.2 |
| 20260903050003 | 60 | 234 | 3.0 | 7.0 | 0.00 | 0.00 | 0.00 | 90 | 1015.2 |
| 20260903045403 | 60 | 232 | 3.0 | 7.0 | 0.00 | 0.00 | 0.00 | 90 | 1015.1 |
| 20260903044503 | 60 | 238 | 3.0 | 7.0 | 0.00 | 0.00 | 0.00 | 90 | 1015.2 |
| 20260903043603 | 60 | 241 | 2.0 | 4.0 | 0.00 | 0.00 | 0.00 | 89 | 1015.2 |
| 20260903042703 | 60 | 231 | 1.0 | 4.0 | 0.00 | 0.00 | 0.00 | 89 | 1015.3 |
| 20260903041803 | 60 | 233 | 2.0 | 4.0 | 0.00 | 0.00 | 0.00 | 89 | 1015.3 |
| 20260903040903 | 60 | 228 | 2.0 | 4.0 | 0.00 | 0.00 | 0.00 | 89 | 1015.4 |
| 20260903040003 | 60 | 240 | 2.0 | 5.0 | 0.00 | 0.00 | 0.00 | 89 | 1015.6 |
| 20260903035403 | 60 | 240 | 2.0 | 5.0 | 0.00 | 0.00 | 0.00 | 89 | 1015.6 |
| 20260903034503 | 61 | 235 | 2.0 | 5.0 | 0.00 | 0.00 | 0.00 | 89 | 1015.7 |
| 20260903033603 | 61 | 238 | 3.0 | 6.0 | 0.00 | 0.01 | 0.00 | 88 | 1015.5 |
| 20260903032703 | 61 | 242 | 3.0 | 6.0 | 0.00 | 0.01 | 0.00 | 88 | 1015.7 |
| 20260903031803 | 61 | 251 | 3.0 | 8.0 | 0.00 | 0.01 | 0.00 | 89 | 1015.8 |
| 20260903030903 | 61 | 243 | 3.0 | 7.0 | 0.00 | 0.02 | 0.00 | 89 | 1015.9 |
| 20260903030003 | 61 | 252 | 4.0 | 8.0 | 0.00 | 0.02 | 0.00 | 89 | 1015.9 |
| 20260903025403 | 61 | 250 | 4.0 | 10.0 | 0.00 | 0.03 | 0.00 | 88 | 1015.8 |
| 20260903024503 | 61 | 240 | 4.0 | 10.0 | 0.00 | 0.04 | 0.00 | 88 | 1015.5 |
| 20260903023603 | 61 | 245 | 3.0 | 7.0 | 0.00 | 0.06 | 0.00 | 88 | 1015.4 |
| 20260903022703 | 61 | 245 | 4.0 | 9.0 | 0.00 | 0.07 | 0.00 | 88 | 1015.5 |
| 20260903021803 | 61 | 229 | 3.0 | 7.0 | 0.00 | 0.09 | 0.00 | 88 | 1015.5 |
| 20260903020903 | 61 | 214 | 3.0 | 6.0 | 0.00 | 0.09 | 0.00 | 88 | 1015.3 |
| 20260903020003 | 61 | 201 | 2.0 | 5.0 | 0.00 | 0.10 | 0.00 | 88 | 1015.5 |
| 20260903015403 | 61 | 201 | 2.0 | 5.0 | 0.00 | 0.10 | 0.00 | 88 | 1015.4 |
| 20260903014503 | 61 | 234 | 3.0 | 7.0 | 0.00 | 0.11 | 0.00 | 88 | 1015.4 |
| 20260903013603 | 61 | 241 | 3.0 | 6.0 | 0.00 | 0.13 | 0.00 | 88 | 1015.7 |
| 20260903012703 | 61 | 242 | 3.0 | 7.0 | 0.00 | 0.14 | 0.00 | 88 | 1015.6 |
| 20260903011803 | 61 | 241 | 3.0 | 8.0 | 0.00 | 0.17 | 0.00 | 88 | 1015.7 |
| 20260903010903 | 61 | 236 | 3.0 | 6.0 | 0.00 | 0.17 | 0.00 | 88 | 1015.4 |
| 20260903010003 | 61 | 230 | 3.0 | 6.0 | 0.00 | 0.17 | 0.00 | 88 | 1015.6 |
| 20260903005403 | 61 | 233 | 3.0 | 6.0 | 0.00 | 0.18 | 0.00 | 88 | 1015.6 |
| 20260903004503 | 61 | 240 | 3.0 | 7.0 | 0.00 | 0.19 | 0.00 | 88 | 1015.5 |
| 20260903003603 | 61 | 243 | 3.0 | 6.0 | 0.00 | 0.20 | 0.00 | 88 | 1015.6 |
| 20260903002703 | 61 | 238 | 3.0 | 7.0 | 0.00 | 0.20 | 0.00 | 87 | 1015.6 |
| 20260903001803 | 61 | 234 | 3.0 | 8.0 | 0.00 | 0.20 | 0.00 | 87 | 1015.3 |
| 20260903000903 | 61 | 239 | 3.0 | 6.0 | 0.00 | 0.20 | 0.00 | 87 | 1015.5 |
| 20260903000003 | 61 | 244 | 3.0 | 5.0 | 0.00 | 0.21 | 0.00 | 87 | 1015.4 |
| 20260902235403 | 61 | 245 | 3.0 | 7.0 | 0.00 | 0.22 | 0.00 | 87 | 1015.4 |
| 20260902234503 | 62 | 247 | 4.0 | 9.0 | 0.00 | 0.24 | 0.00 | 86 | 1015.6 |
| 20260902233603 | 62 | 245 | 4.0 | 8.0 | 0.00 | 0.26 | 0.00 | 86 | 1015.7 |
| 20260902232703 | 62 | 248 | 5.0 | 10.0 | 0.00 | 0.27 | 0.00 | 86 | 1015.7 |
| 20260902231803 | 62 | 251 | 4.0 | 10.0 | 0.00 | 0.28 | 0.00 | 86 | 1015.6 |
| 20260902230903 | 62 | 249 | 4.0 | 9.0 | 0.00 | 0.28 | 0.00 | 86 | 1015.4 |
| 20260902230003 | 62 | 248 | 4.0 | 10.0 | 0.00 | 0.29 | 0.00 | 86 | 1015.2 |
| 20260902225403 | 63 | 256 | 4.0 | 10.0 | 0.00 | 0.29 | 0.29 | 86 | 1015.4 |
| 20260902224503 | 63 | 259 | 4.0 | 8.0 | 0.00 | 0.30 | 0.29 | 86 | 1015.3 |
| 20260902223603 | 63 | 248 | 4.0 | 8.0 | 0.00 | 0.30 | 0.29 | 86 | 1015.2 |
| 20260902222703 | 63 | 249 | 3.0 | 7.0 | 0.00 | 0.30 | 0.29 | 86 | 1015.2 |
| 20260902221803 | 63 | 249 | 3.0 | 7.0 | 0.00 | 0.30 | 0.29 | 86 | 1015.1 |
| 20260902220903 | 63 | 243 | 4.0 | 8.0 | 0.00 | 0.31 | 0.29 | 86 | 1015.4 |
| 20260902220003 | 63 | 248 | 4.0 | 12.0 | 0.00 | 0.31 | 0.29 | 86 | 1015.3 |
| 20260902215403 | 63 | 249 | 5.0 | 12.0 | 0.00 | 0.31 | 0.29 | 86 | 1015.3 |
| 20260902214503 | 64 | 250 | 4.0 | 10.0 | 0.00 | 0.31 | 0.29 | 86 | 1015.1 |
| 20260902213603 | 64 | 246 | 4.0 | 8.0 | 0.00 | 0.31 | 0.29 | 86 | 1015.0 |
| 20260902212703 | 64 | 248 | 5.0 | 13.0 | 0.00 | 0.31 | 0.29 | 86 | 1015.2 |
| 20260902211803 | 64 | 248 | 5.0 | 11.0 | 0.00 | 0.31 | 0.29 | 86 | 1015.3 |
| 20260902210903 | 64 | 250 | 5.0 | 11.0 | 0.00 | 0.31 | 0.29 | 87 | 1015.3 |
| 20260902210003 | 64 | 251 | 5.0 | 10.0 | 0.00 | 0.31 | 0.29 | 87 | 1015.0 |
| 20260902205403 | 64 | 246 | 5.0 | 10.0 | 0.00 | 0.31 | 0.29 | 86 | 1015.0 |
| 20260902204503 | 65 | 240 | 5.0 | 11.0 | 0.00 | 0.31 | 0.29 | 86 | 1014.8 |
| 20260902203603 | 65 | 246 | 6.0 | 12.0 | 0.00 | 0.31 | 0.29 | 86 | 1014.8 |
| 20260902202703 | 65 | 247 | 5.0 | 10.0 | 0.00 | 0.31 | 0.29 | 86 | 1014.5 |
| 20260902201803 | 65 | 245 | 5.0 | 10.0 | 0.00 | 0.31 | 0.29 | 86 | 1014.4 |
| 20260902200903 | 65 | 247 | 6.0 | 13.0 | 0.00 | 0.31 | 0.29 | 85 | 1014.4 |
| 20260902200003 | 65 | 247 | 7.0 | 13.0 | 0.00 | 0.31 | 0.29 | 85 | 1014.5 |
| 20260902195403 | 66 | 251 | 7.0 | 13.0 | 0.00 | 0.31 | 0.29 | 85 | 1014.5 |
| 20260902194503 | 66 | 250 | 7.0 | 13.0 | 0.00 | 0.31 | 0.29 | 85 | 1014.4 |
| 20260902193603 | 66 | 251 | 7.0 | 20.0 | 0.00 | 0.31 | 0.29 | 85 | 1014.3 |
| 20260902192703 | 66 | 250 | 6.0 | 12.0 | 0.00 | 0.31 | 0.29 | 85 | 1014.1 |
| 20260902191803 | 66 | 248 | 6.0 | 13.0 | 0.00 | 0.31 | 0.29 | 85 | 1014.1 |
| 20260902190903 | 66 | 252 | 6.0 | 16.0 | 0.00 | 0.31 | 0.29 | 85 | 1014.0 |
| 20260902190003 | 66 | 248 | 8.0 | 18.0 | 0.00 | 0.31 | 0.29 | 85 | 1013.8 |
| 20260902185403 | 66 | 249 | 8.0 | 18.0 | 0.00 | 0.31 | 0.29 | 85 | 1013.8 |
| 20260902184503 | 67 | 247 | 9.0 | 17.0 | 0.00 | 0.31 | 0.29 | 85 | 1013.7 |
| 20260902183603 | 67 | 253 | 7.0 | 16.0 | 0.00 | 0.31 | 0.29 | 86 | 1013.6 |
| 20260902182703 | 67 | 250 | 7.0 | 16.0 | 0.00 | 0.31 | 0.29 | 86 | 1013.7 |
| 20260902181803 | 67 | 250 | 6.0 | 14.0 | 0.00 | 0.31 | 0.29 | 86 | 1013.5 |
| 20260902180903 | 67 | 243 | 6.0 | 15.0 | 0.00 | 0.31 | 0.29 | 86 | 1013.2 |
| 20260902180005 | 67 | 245 | 5.0 | 15.0 | 0.00 | 0.31 | 0.29 | 86 | 1013.4 |
| 20260902175403 | 67 | 246 | 6.0 | 12.0 | 0.00 | 0.31 | 0.29 | 86 | 1013.4 |
| 20260902174503 | 67 | 248 | 6.0 | 14.0 | 0.00 | 0.31 | 0.29 | 86 | 1013.3 |
| 20260902173603 | 68 | 249 | 5.0 | 14.0 | 0.00 | 0.31 | 0.29 | 86 | 1013.4 |
| 20260902172703 | 68 | 247 | 6.0 | 12.0 | 0.00 | 0.31 | 0.29 | 86 | 1013.3 |
| 20260902171803 | 68 | 249 | 4.0 | 14.0 | 0.00 | 0.31 | 0.29 | 86 | 1013.4 |
| 20260902170903 | 68 | 252 | 5.0 | 10.0 | 0.00 | 0.31 | 0.29 | 85 | 1013.5 |
| 20260902170003 | 68 | 248 | 6.0 | 14.0 | 0.00 | 0.31 | 0.29 | 85 | 1013.5 |
| 20260902165403 | 68 | 247 | 5.0 | 14.0 | 0.00 | 0.31 | 0.29 | 85 | 1013.4 |
| 20260902164503 | 68 | 251 | 6.0 | 13.0 | 0.00 | 0.31 | 0.29 | 85 | 1013.4 |
| 20260902163603 | 68 | 247 | 6.0 | 17.0 | 0.00 | 0.31 | 0.29 | 84 | 1013.5 |
| 20260902162703 | 68 | 246 | 8.0 | 15.0 | 0.00 | 0.31 | 0.29 | 84 | 1013.4 |
| 20260902161803 | 68 | 244 | 6.0 | 14.0 | 0.00 | 0.31 | 0.29 | 84 | 1013.5 |
| 20260902160903 | 68 | 243 | 6.0 | 14.0 | 0.00 | 0.31 | 0.29 | 84 | 1013.5 |
| 20260902160004 | 68 | 246 | 6.0 | 13.0 | 0.00 | 0.31 | 0.29 | 84 | 1013.5 |
| 20260902155403 | 68 | 244 | 6.0 | 13.0 | 0.00 | 0.31 | 0.29 | 84 | 1013.5 |
| 20260902154503 | 68 | 242 | 6.0 | 13.0 | 0.00 | 0.31 | 0.29 | 83 | 1013.6 |
| 20260902153603 | 68 | 245 | 6.0 | 13.0 | 0.00 | 0.31 | 0.29 | 82 | 1013.7 |
| 20260902152703 | 68 | 243 | 7.0 | 16.0 | 0.00 | 0.31 | 0.29 | 81 | 1013.7 |
| 20260902151803 | 68 | 241 | 7.0 | 15.0 | 0.00 | 0.31 | 0.29 | 80 | 1013.6 |
| 20260902150903 | 69 | 242 | 7.0 | 17.0 | 0.00 | 0.31 | 0.29 | 80 | 1013.6 |
| 20260902150003 | 69 | 244 | 9.0 | 23.0 | 0.00 | 0.31 | 0.29 | 79 | 1013.5 |
| 20260902145403 | 69 | 241 | 8.0 | 20.0 | 0.00 | 0.31 | 0.29 | 78 | 1013.5 |
| 20260902144503 | 70 | 247 | 9.0 | 20.0 | 0.00 | 0.31 | 0.29 | 78 | 1013.8 |
| 20260902143603 | 70 | 241 | 8.0 | 17.0 | 0.00 | 0.31 | 0.29 | 77 | 1013.4 |
| 20260902142705 | 70 | 245 | 9.0 | 17.0 | 0.00 | 0.31 | 0.29 | 76 | 1013.5 |
| 20260902141803 | 71 | 247 | 8.0 | 19.0 | 0.00 | 0.31 | 0.29 | 76 | 1013.4 |
| 20260902140903 | 71 | 246 | 8.0 | 14.0 | 0.00 | 0.31 | 0.29 | 76 | 1013.3 |
| 20260902140003 | 71 | 247 | 9.0 | 21.0 | 0.00 | 0.31 | 0.29 | 74 | 1013.4 |
| 20260902135403 | 72 | 252 | 9.0 | 21.0 | 0.00 | 0.31 | 0.29 | 74 | 1013.4 |
| 20260902134503 | 72 | 251 | 6.0 | 18.0 | 0.00 | 0.31 | 0.29 | 74 | 1013.5 |
| 20260902133603 | 72 | 254 | 6.0 | 14.0 | 0.00 | 0.31 | 0.29 | 73 | 1013.4 |
| 20260902132703 | 73 | 250 | 6.0 | 19.0 | 0.00 | 0.31 | 0.29 | 73 | 1013.4 |
| 20260902131803 | 73 | 257 | 6.0 | 15.0 | 0.00 | 0.34 | 0.29 | 73 | 1013.3 |
| 20260902130903 | 73 | 251 | 9.0 | 17.0 | 0.00 | 0.34 | 0.29 | 73 | 1013.4 |
| 20260902130003 | 73 | 248 | 7.0 | 14.0 | 0.00 | 0.34 | 0.29 | 72 | 1013.4 |
| 20260902125403 | 73 | 244 | 8.0 | 17.0 | 0.00 | 0.34 | 0.29 | 72 | 1013.3 |
| 20260902124503 | 73 | 246 | 9.0 | 17.0 | 0.00 | 0.34 | 0.29 | 72 | 1013.1 |
| 20260902123603 | 73 | 243 | 8.0 | 16.0 | 0.00 | 0.34 | 0.29 | 74 | 1013.0 |
| 20260902122703 | 73 | 241 | 6.0 | 15.0 | 0.00 | 0.34 | 0.29 | 76 | 1013.1 |
| 20260902121803 | 72 | 252 | 7.0 | 13.0 | 0.00 | 0.34 | 0.29 | 77 | 1013.1 |
| 20260902120903 | 72 | 248 | 8.0 | 15.0 | 0.00 | 0.34 | 0.29 | 79 | 1013.1 |
| 20260902120003 | 71 | 252 | 6.0 | 16.0 | 0.00 | 0.34 | 0.29 | 81 | 1013.0 |
| 20260902115403 | 71 | 250 | 6.0 | 14.0 | 0.00 | 0.34 | 0.29 | 83 | 1013.0 |
| 20260902114503 | 71 | 245 | 6.0 | 13.0 | 0.00 | 0.34 | 0.29 | 84 | 1013.0 |
| 20260902113603 | 70 | 246 | 7.0 | 15.0 | 0.00 | 0.34 | 0.29 | 85 | 1012.9 |
| 20260902112703 | 70 | 243 | 7.0 | 15.0 | 0.00 | 0.34 | 0.29 | 86 | 1012.8 |
| 20260902111803 | 70 | 253 | 6.0 | 13.0 | 0.00 | 0.34 | 0.29 | 88 | 1012.7 |
| 20260902110903 | 69 | 247 | 6.0 | 13.0 | 0.00 | 0.34 | 0.29 | 89 | 1012.7 |
| 20260902110004 | 68 | 250 | 5.0 | 13.0 | 0.00 | 0.34 | 0.29 | 90 | 1012.8 |
| 20260902105403 | 67 | 251 | 5.0 | 13.0 | 0.00 | 0.34 | 0.29 | 91 | 1013.0 |
| 20260902104503 | 67 | 249 | 7.0 | 16.0 | 0.00 | 0.35 | 0.29 | 91 | 1012.8 |
| 20260902103603 | 66 | 249 | 8.0 | 20.0 | 0.00 | 0.35 | 0.29 | 92 | 1012.7 |
| 20260902102703 | 66 | 252 | 6.0 | 16.0 | 0.00 | 0.35 | 0.29 | 93 | 1013.0 |
| 20260902101803 | 66 | 248 | 7.0 | 16.0 | 0.00 | 0.35 | 0.29 | 92 | 1012.9 |
| 20260902100903 | 66 | 248 | 7.0 | 14.0 | 0.00 | 0.35 | 0.29 | 92 | 1012.7 |
| 20260902100003 | 66 | 244 | 7.0 | 18.0 | 0.00 | 0.35 | 0.29 | 93 | 1012.7 |
| 20260902095403 | 66 | 242 | 6.0 | 13.0 | 0.00 | 0.35 | 0.29 | 93 | 1012.5 |
| 20260902094503 | 66 | 243 | 6.0 | 13.0 | 0.00 | 0.35 | 0.29 | 93 | 1012.6 |
| 20260902093603 | 65 | 242 | 5.0 | 9.0 | 0.00 | 0.35 | 0.29 | 94 | 1012.7 |
| 20260902092703 | 65 | 244 | 5.0 | 10.0 | 0.00 | 0.35 | 0.29 | 94 | 1012.7 |
| 20260902091803 | 64 | 246 | 6.0 | 12.0 | 0.00 | 0.35 | 0.29 | 93 | 1012.7 |
| 20260902090903 | 64 | 253 | 5.0 | 14.0 | 0.00 | 0.35 | 0.29 | 94 | 1012.6 |
| 20260902090004 | 64 | 250 | 8.0 | 16.0 | 0.00 | 0.35 | 0.29 | 93 | 1012.6 |
| 20260902085403 | 64 | 250 | 6.0 | 16.0 | 0.00 | 0.35 | 0.29 | 94 | 1012.5 |